Weather History for Grand Marais Airport, MN

Change the Weather History Date:

Friday, October 3, 2014

  Actual Average Record
Temperature  
Mean Temperature 44 °F -  
Max Temperature 51 °F 52 °F 73 °F (2005)
Min Temperature 37 °F 35 °F 21 °F (1999)
Degree Days  
Heating Degree Days 21    
Moisture  
Dew Point 40 °F    
Average Humidity 83    
Maximum Humidity 93    
Minimum Humidity 58    
Precipitation  
Precipitation 0.10 in - - ()
Sea Level Pressure  
Sea Level Pressure 29.49 in    
Wind  
Wind Speed 8 mph (NW)    
Max Wind Speed 18 mph    
Max Gust Speed 30 mph    
Visibility 9 miles    
Events Rain    
Averages and records for this station are not official NWS values.
T = Trace of Precipitation, MM = Missing Value Source: NWS Daily Summary

Daily Weather History Graph

Daily Weather History Graph

Search for Another Location

Airport:

Trip Planner

Search our weather history database for the weather conditions in past years. The results will help you decide how hot, cold, wet, or windy it might be!

Date:

Astronomy

Oct. 03, 2014 Rise Set
Actual Time 7:03 AM CDT 6:36 PM CDT
Civil Twilight 6:32 AM CDT 7:07 PM CDT
Nautical Twilight 5:56 AM CDT 7:43 PM CDT
Astronomical Twilight 5:20 AM CDT 8:19 PM CDT
Moon 3:49 PM CDT (10/3) 1:02 AM CDT (10/3)
Length of Visible Light 12h 34m
Length of Day
11h 33m
Waxing Gibbous, 71% of the Moon is Illuminated
Oct 3
Waxing Gibbous
Oct 8
Full
Oct 15
Last Quarter
Oct 23
New
Oct 30
First Quarter

Hourly Weather History & Observations

Time (CDT) Temp. Windchill Dew Point Humidity Pressure Visibility Wind Dir Wind Speed Gust Speed Precip Events Conditions
12:13 AM 48.2 °F - 46.4 °F 93% 29.65 in 10.0 mi NNW 4.6 mph - 0.02 in Rain Light Rain
12:34 AM 48.2 °F - 46.4 °F 93% 29.65 in 10.0 mi NW 5.8 mph - 0.03 in Rain Light Rain
12:53 AM 48.2 °F - 46.4 °F 93% 29.63 in 10.0 mi NNW 5.8 mph - 0.04 in Rain Light Rain
1:13 AM 48.2 °F - 46.4 °F 93% 29.61 in 10.0 mi NNW 6.9 mph - N/A Rain Light Rain
1:33 AM 48.2 °F - 44.6 °F 87% 29.61 in 10.0 mi NNW 4.6 mph - 0.01 in Rain Rain
1:54 AM 48.2 °F - 44.6 °F 87% 29.61 in 10.0 mi NNW 5.8 mph - 0.02 in Rain Light Rain
2:13 AM 48.2 °F - 44.6 °F 87% 29.61 in 10.0 mi NNW 5.8 mph - N/A Rain Light Rain
2:33 AM 48.2 °F - 44.6 °F 87% 29.59 in 7.0 mi NW 4.6 mph - 0.01 in Rain Light Rain
2:54 AM 48.2 °F - 44.6 °F 87% 29.58 in 10.0 mi NW 4.6 mph - 0.02 in Rain Light Rain
3:14 AM 48.2 °F - 44.6 °F 87% 29.57 in 10.0 mi NW 5.8 mph - N/A   Light Drizzle
3:33 AM 48.2 °F - 44.6 °F 87% 29.57 in 10.0 mi NW 5.8 mph - N/A   Overcast
3:53 AM 48.2 °F - 44.6 °F 87% 29.55 in 10.0 mi NW 5.8 mph - N/A   Overcast
4:13 AM 48.2 °F - 44.6 °F 87% 29.56 in 10.0 mi WNW 3.5 mph - N/A   Mostly Cloudy
4:33 AM 48.2 °F - 44.6 °F 87% 29.55 in 4.0 mi WNW 3.5 mph - N/A Rain Light Rain
4:53 AM 48.2 °F - 44.6 °F 87% 29.54 in 7.0 mi NW 8.1 mph - N/A Rain Light Rain
5:13 AM 48.2 °F - 44.6 °F 87% 29.53 in 4.0 mi NW 9.2 mph - N/A   Light Drizzle
5:33 AM 48.2 °F - 44.6 °F 87% 29.53 in 10.0 mi NW 4.6 mph - N/A   Mostly Cloudy
5:54 AM 46.4 °F 42.9 °F 44.6 °F 93% 29.53 in 10.0 mi NW 6.9 mph - N/A   Overcast
6:14 AM 46.4 °F 42.9 °F 44.6 °F 93% 29.52 in 10.0 mi WNW 6.9 mph - N/A   Scattered Clouds
6:34 AM 46.4 °F 43.5 °F 42.8 °F 87% 29.51 in 10.0 mi NW 5.8 mph - N/A   Scattered Clouds
6:53 AM 46.4 °F 42.4 °F 42.8 °F 87% 29.51 in 10.0 mi NW 8.1 mph - N/A   Scattered Clouds
7:13 AM 46.4 °F 42.4 °F 42.8 °F 87% 29.50 in 10.0 mi NW 8.1 mph - N/A   Mostly Cloudy
7:33 AM 46.4 °F 44.3 °F 44.6 °F 93% 29.50 in 10.0 mi WNW 4.6 mph - N/A   Mostly Cloudy
7:54 AM 46.4 °F 42.9 °F 42.8 °F 87% 29.50 in 10.0 mi NW 6.9 mph - N/A   Mostly Cloudy
8:13 AM 46.4 °F 41.9 °F 42.8 °F 87% 29.50 in 10.0 mi WNW 9.2 mph - N/A   Mostly Cloudy
8:33 AM 48.2 °F - 44.6 °F 87% 29.49 in 10.0 mi WNW 6.9 mph - N/A   Mostly Cloudy
8:53 AM 48.2 °F - 44.6 °F 87% 29.47 in 10.0 mi NW 6.9 mph - N/A   Scattered Clouds
9:14 AM 48.2 °F - 44.6 °F 87% 29.46 in 10.0 mi WNW 9.2 mph - N/A   Mostly Cloudy
9:33 AM 48.2 °F - 42.8 °F 82% 29.46 in 10.0 mi WNW 9.2 mph 16.1 mph N/A   Scattered Clouds
9:54 AM 48.2 °F - 42.8 °F 82% 29.45 in 10.0 mi WNW 6.9 mph 18.4 mph N/A   Scattered Clouds
10:13 AM 48.2 °F - 42.8 °F 82% 29.45 in 10.0 mi WNW 11.5 mph 16.1 mph N/A   Clear
10:33 AM 48.2 °F - 42.8 °F 82% 29.46 in 10.0 mi WNW 6.9 mph 16.1 mph N/A   Scattered Clouds
10:54 AM 48.2 °F - 42.8 °F 82% 29.45 in 10.0 mi WNW 11.5 mph 19.6 mph N/A   Scattered Clouds
11:13 AM 51.8 °F - 42.8 °F 71% 29.44 in 10.0 mi WNW 13.8 mph 21.9 mph N/A   Scattered Clouds
11:34 AM 51.8 °F - 41.0 °F 67% 29.43 in 10.0 mi WNW 16.1 mph 21.9 mph N/A   Scattered Clouds
11:53 AM 51.8 °F - 39.2 °F 62% 29.43 in 10.0 mi WNW 13.8 mph 23.0 mph N/A   Scattered Clouds
12:13 PM 51.8 °F - 39.2 °F 62% 29.43 in 10.0 mi WNW 10.4 mph 27.6 mph N/A   Scattered Clouds
12:33 PM 51.8 °F - 39.2 °F 62% 29.43 in 10.0 mi WNW 15.0 mph 26.5 mph N/A   Clear
12:54 PM 51.8 °F - 39.2 °F 62% 29.43 in 10.0 mi NW 16.1 mph 26.5 mph N/A   Clear
1:13 PM 51.8 °F - 37.4 °F 58% 29.42 in 10.0 mi WNW 12.7 mph 29.9 mph N/A   Scattered Clouds
1:34 PM 51.8 °F - 37.4 °F 58% 29.42 in 10.0 mi WNW 15.0 mph 26.5 mph N/A   Scattered Clouds
1:53 PM 50.0 °F - 39.2 °F 66% 29.42 in 10.0 mi West 18.4 mph 26.5 mph N/A   Scattered Clouds
2:14 PM 48.2 °F - 39.2 °F 71% 29.42 in 10.0 mi West 12.7 mph 21.9 mph N/A   Mostly Cloudy
2:33 PM 48.2 °F - 39.2 °F 71% 29.42 in 10.0 mi West 13.8 mph 24.2 mph N/A   Mostly Cloudy
2:53 PM 46.4 °F 41.1 °F 39.2 °F 76% 29.43 in 10.0 mi West 11.5 mph 23.0 mph N/A   Overcast
3:14 PM 46.4 °F 40.1 °F 39.2 °F 76% 29.44 in 10.0 mi West 15.0 mph 25.3 mph N/A   Overcast
3:33 PM 44.6 °F 40.2 °F 37.4 °F 76% 29.44 in 10.0 mi West 8.1 mph 18.4 mph N/A   Overcast
3:54 PM 44.6 °F 37.8 °F 37.4 °F 76% 29.44 in 7.0 mi West 15.0 mph 28.8 mph N/A   Overcast
4:13 PM 44.6 °F 38.1 °F 37.4 °F 76% 29.44 in 10.0 mi West 13.8 mph 26.5 mph N/A   Overcast
4:33 PM 42.8 °F 36.2 °F 37.4 °F 81% 29.45 in 10.0 mi West 12.7 mph 25.3 mph N/A   Overcast
4:53 PM 42.8 °F 35.8 °F 37.4 °F 81% 29.45 in 10.0 mi West 13.8 mph 23.0 mph N/A   Overcast
5:14 PM 42.8 °F 36.2 °F 35.6 °F 76% 29.46 in 7.0 mi West 12.7 mph 23.0 mph N/A   Overcast
5:33 PM 41.0 °F 35.2 °F 35.6 °F 81% 29.46 in 10.0 mi West 9.2 mph 21.9 mph N/A   Overcast
5:53 PM 41.0 °F 34.7 °F 35.6 °F 81% 29.46 in 7.0 mi WNW 10.4 mph 23.0 mph N/A   Overcast
6:14 PM 41.0 °F 34.7 °F 35.6 °F 81% 29.46 in 10.0 mi WNW 10.4 mph 28.8 mph N/A   Overcast
6:33 PM 39.2 °F 32.5 °F 35.6 °F 87% 29.46 in 10.0 mi WNW 10.4 mph 23.0 mph N/A   Overcast
6:53 PM 39.2 °F 33.0 °F 35.6 °F 87% 29.46 in 10.0 mi WNW 9.2 mph 23.0 mph N/A   Overcast
7:13 PM 39.2 °F 31.6 °F 35.6 °F 87% 29.46 in 7.0 mi WNW 12.7 mph 17.3 mph N/A   Overcast
7:34 PM 39.2 °F 32.0 °F 35.6 °F 87% 29.46 in 5.0 mi WNW 11.5 mph 17.3 mph N/A Rain Light Rain
7:53 PM 39.2 °F 33.0 °F 35.6 °F 87% 29.47 in 5.0 mi NW 9.2 mph 19.6 mph N/A   Light Drizzle
8:14 PM 39.2 °F 33.0 °F 35.6 °F 87% 29.47 in 5.0 mi NW 9.2 mph 18.4 mph N/A   Light Drizzle
8:33 PM 39.2 °F 35.0 °F 35.6 °F 87% 29.47 in 7.0 mi NW 5.8 mph 17.3 mph N/A   Overcast
8:53 PM 41.0 °F 34.3 °F 35.6 °F 81% 29.47 in 10.0 mi NNW 11.5 mph 19.6 mph N/A   Mostly Cloudy
9:13 PM 41.0 °F 35.2 °F 35.6 °F 81% 29.48 in 10.0 mi NNW 9.2 mph 18.4 mph N/A   Overcast
9:33 PM 41.0 °F 36.4 °F 35.6 °F 81% 29.48 in 10.0 mi NNW 6.9 mph 18.4 mph N/A   Overcast
9:54 PM 39.2 °F 33.0 °F 35.6 °F 87% 29.48 in 10.0 mi NNW 9.2 mph - N/A   Light Drizzle
10:13 PM 39.2 °F 32.0 °F 35.6 °F 87% 29.49 in 10.0 mi NNW 11.5 mph - N/A Rain Light Rain
10:33 PM 39.2 °F 34.2 °F 35.6 °F 87% 29.49 in 3.0 mi NW 6.9 mph - 0.01 in Rain Rain
10:54 PM 39.2 °F 33.6 °F 35.6 °F 87% 29.50 in 7.0 mi NW 8.1 mph 19.6 mph 0.02 in Rain Light Rain
11:13 PM 37.4 °F 30.8 °F 33.8 °F 87% 29.50 in 3.0 mi NW 9.2 mph 20.7 mph N/A   Drizzle
11:33 PM 37.4 °F 30.8 °F 33.8 °F 87% 29.50 in 10.0 mi NW 9.2 mph 19.6 mph N/A   Overcast
11:54 PM 37.4 °F 30.3 °F 33.8 °F 87% 29.50 in 10.0 mi NW 10.4 mph 23.0 mph N/A   Overcast